TimeCST,TemperatureF,Dew PointF,Humidity,Sea Level PressureIn,VisibilityMPH,Wind Direction,Wind SpeedMPH,Gust SpeedMPH,PrecipitationIn,Events,Conditions,WindDirDegrees,DateUTC
12:15 AM,-4.0,-13.0,65,30.58,10.0,North,4.6,-,N/A,,Clear,360,2014-03-03 06:15:00
12:30 AM,-4.0,-11.2,71,30.58,10.0,NW,4.6,-,N/A,,Clear,320,2014-03-03 06:30:00
12:55 AM,-4.0,-11.2,71,30.57,10.0,North,4.6,-,N/A,,Clear,360,2014-03-03 06:55:00
1:15 AM,-4.0,-11.2,71,30.57,10.0,North,3.5,-,N/A,,Clear,10,2014-03-03 07:15:00
1:35 AM,-4.0,-11.2,71,30.57,10.0,Calm,Calm,-,N/A,,Clear,0,2014-03-03 07:35:00
1:55 AM,-4.0,-11.2,71,30.57,10.0,North,4.6,-,N/A,,Clear,360,2014-03-03 07:55:00
2:15 AM,-4.0,-11.2,71,30.56,10.0,Calm,Calm,-,N/A,,Clear,0,2014-03-03 08:15:00
2:35 AM,-4.0,-11.2,71,30.55,10.0,North,4.6,-,N/A,,Clear,350,2014-03-03 08:35:00
2:55 AM,-4.0,-11.2,71,30.55,10.0,North,5.8,-,N/A,,Clear,350,2014-03-03 08:55:00
3:15 AM,-4.0,-13.0,65,30.54,10.0,North,6.9,-,N/A,,Clear,350,2014-03-03 09:15:00
3:35 AM,-4.0,-11.2,71,30.54,10.0,North,4.6,-,N/A,,Clear,350,2014-03-03 09:35:00
3:55 AM,-4.0,-13.0,65,30.53,10.0,North,4.6,-,N/A,,Clear,360,2014-03-03 09:55:00
4:15 AM,-4.0,-13.0,65,30.52,10.0,North,4.6,-,N/A,,Clear,360,2014-03-03 10:15:00
4:35 AM,-4.0,-11.2,71,30.52,10.0,Calm,Calm,-,N/A,,Clear,0,2014-03-03 10:35:00
4:55 AM,-4.0,-11.2,71,30.52,10.0,Calm,Calm,-,N/A,,Clear,0,2014-03-03 10:55:00
5:15 AM,-5.8,-11.2,77,30.52,10.0,North,4.6,-,N/A,,Clear,360,2014-03-03 11:15:00
5:35 AM,-5.8,-11.2,77,30.52,10.0,Calm,Calm,-,N/A,,Clear,0,2014-03-03 11:35:00
5:55 AM,-5.8,-11.2,77,30.52,10.0,Calm,Calm,-,N/A,,Clear,0,2014-03-03 11:55:00
6:15 AM,-4.0,-11.2,71,30.52,10.0,NNW,3.5,-,N/A,,Clear,340,2014-03-03 12:15:00
6:35 AM,-5.8,-11.2,77,30.51,10.0,Calm,Calm,-,N/A,,Clear,0,2014-03-03 12:35:00
6:50 AM,-5.8,-11.2,77,30.52,10.0,Calm,Calm,-,N/A,,Clear,0,2014-03-03 12:50:00
7:15 AM,-4.0,-11.2,71,30.50,10.0,Calm,Calm,-,N/A,,Clear,0,2014-03-03 13:15:00
7:35 AM,-4.0,-11.2,71,30.51,10.0,Calm,Calm,-,N/A,,Clear,0,2014-03-03 13:35:00
7:55 AM,-2.2,-11.2,66,30.50,10.0,Calm,Calm,-,N/A,,Clear,0,2014-03-03 13:55:00
8:15 AM,-2.2,-9.4,71,30.51,10.0,Calm,Calm,-,N/A,,Clear,0,2014-03-03 14:15:00
8:35 AM,-0.4,-9.4,66,30.51,10.0,Calm,Calm,-,N/A,,Clear,0,2014-03-03 14:35:00
8:55 AM,1.4,-7.6,66,30.51,10.0,Calm,Calm,-,N/A,,Clear,0,2014-03-03 14:55:00
9:15 AM,3.2,-7.6,61,30.52,10.0,Calm,Calm,-,N/A,,Clear,0,2014-03-03 15:15:00
9:35 AM,5.0,-5.8,61,30.51,10.0,ESE,6.9,-,N/A,,Clear,120,2014-03-03 15:35:00
9:50 AM,6.8,-5.8,56,30.52,10.0,SSE,3.5,11.5,N/A,,Clear,160,2014-03-03 15:50:00
10:15 AM,8.6,-4.0,57,30.50,10.0,ESE,9.2,-,N/A,,Clear,120,2014-03-03 16:15:00
10:35 AM,8.6,-4.0,57,30.50,10.0,SSE,9.2,-,N/A,,Clear,160,2014-03-03 16:35:00
10:55 AM,10.4,-2.2,57,30.49,10.0,South,9.2,-,N/A,,Clear,170,2014-03-03 16:55:00
11:10 AM,10.4,-4.0,52,30.48,10.0,South,10.4,-,N/A,,Clear,170,2014-03-03 17:10:00
11:35 AM,10.4,-2.2,57,30.48,10.0,SSE,11.5,-,N/A,,Clear,160,2014-03-03 17:35:00
11:55 AM,10.4,-2.2,57,30.46,10.0,SSE,11.5,-,N/A,,Clear,160,2014-03-03 17:55:00
12:15 PM,12.2,-2.2,53,30.46,10.0,South,12.7,-,N/A,,Clear,190,2014-03-03 18:15:00
12:35 PM,14.0,-0.4,53,30.45,10.0,South,13.8,-,N/A,,Clear,170,2014-03-03 18:35:00
12:50 PM,12.2,-2.2,53,30.44,10.0,South,12.7,-,N/A,,Clear,180,2014-03-03 18:50:00
1:35 PM,12.2,-4.0,48,30.40,10.0,South,9.2,16.1,N/A,,Clear,170,2014-03-03 19:35:00
1:55 PM,14.0,-4.0,45,30.39,10.0,South,15.0,-,N/A,,Clear,190,2014-03-03 19:55:00
2:15 PM,14.0,-2.2,49,30.39,10.0,SSW,16.1,-,N/A,,Clear,200,2014-03-03 20:15:00
2:35 PM,14.0,-4.0,45,30.37,10.0,South,17.3,-,N/A,,Clear,180,2014-03-03 20:35:00
2:55 PM,14.0,-5.8,41,30.35,10.0,South,17.3,-,N/A,,Clear,180,2014-03-03 20:55:00
3:15 PM,14.0,-4.0,45,30.33,10.0,South,15.0,21.9,N/A,,Clear,170,2014-03-03 21:15:00
3:35 PM,15.8,-4.0,41,30.33,10.0,South,15.0,20.7,N/A,,Clear,180,2014-03-03 21:35:00
3:55 PM,14.0,-2.2,49,30.32,10.0,South,16.1,-,N/A,,Clear,170,2014-03-03 21:55:00
4:15 PM,15.8,-0.4,49,30.30,10.0,South,18.4,-,N/A,,Clear,170,2014-03-03 22:15:00
4:30 PM,15.8,-0.4,49,30.29,10.0,South,15.0,23.0,N/A,,Partly Cloudy,170,2014-03-03 22:30:00
4:55 PM,14.0,-0.4,53,30.27,10.0,SSE,17.3,-,N/A,,Scattered Clouds,160,2014-03-03 22:55:00
5:15 PM,14.0,-0.4,53,30.26,10.0,South,19.6,-,N/A,,Clear,170,2014-03-03 23:15:00
5:35 PM,15.8,-0.4,49,30.24,10.0,SSE,20.7,-,N/A,,Mostly Cloudy,160,2014-03-03 23:35:00
5:55 PM,15.8,-0.4,49,30.23,10.0,SSE,16.1,-,N/A,,Partly Cloudy,160,2014-03-03 23:55:00
6:15 PM,15.8,-0.4,49,30.23,10.0,SSE,17.3,-,N/A,,Partly Cloudy,160,2014-03-04 00:15:00
6:35 PM,15.8,-0.4,49,30.23,10.0,South,16.1,-,N/A,,Mostly Cloudy,170,2014-03-04 00:35:00
6:55 PM,15.8,-0.4,49,30.23,10.0,South,12.7,20.7,N/A,,Overcast,170,2014-03-04 00:55:00
7:15 PM,15.8,1.4,53,30.26,10.0,South,9.2,-,N/A,,Overcast,180,2014-03-04 01:15:00
7:35 PM,15.8,1.4,53,30.26,10.0,South,10.4,-,N/A,,Overcast,180,2014-03-04 01:35:00
7:55 PM,15.8,-0.4,49,30.27,10.0,South,10.4,-,N/A,,Overcast,180,2014-03-04 01:55:00
8:10 PM,15.8,-0.4,49,30.25,10.0,South,10.4,-,N/A,,Overcast,170,2014-03-04 02:10:00
9:40 PM,15.8,1.4,53,30.25,10.0,South,11.5,-,N/A,,Overcast,170,2014-03-04 03:40:00
9:55 PM,15.8,1.4,53,30.25,10.0,South,9.2,16.1,N/A,,Overcast,170,2014-03-04 03:55:00
10:55 PM,15.8,1.4,53,30.22,10.0,South,13.8,-,N/A,,Overcast,170,2014-03-04 04:55:00
11:15 PM,14.0,1.4,57,30.21,10.0,South,11.5,-,N/A,,Mostly Cloudy,170,2014-03-04 05:15:00
11:35 PM,14.0,3.2,62,30.21,10.0,South,9.2,-,N/A,,Scattered Clouds,170,2014-03-04 05:35:00
11:55 PM,14.0,3.2,62,30.20,10.0,South,10.4,-,N/A,,Clear,180,2014-03-04 05:55:00